NOAA 16 DEB, 41426

Orbit data source: Space-Track

NOAA 16 DEB, 41426 is space debris in SSO originally from a launch on Thu, 21 Sep 2000 UTC launched from the Air Force Western Test Range (AFWTR). Debris objects in space refer to the collection of defunct objects orbiting the Earth. Examples of debris include non-operational satellites, rocket bodies, and fragments generated from explosions, collisions, or faulty payload assembly.

Loading next visibility...
Identifier
41426, 2000-055LF
Orbit
SSO
Country
Flag of USUS
Related business
Manufacturer
Unknown
Mission
Spacecraft
Bus & Motor
Unknown
Mass
Unknown
Launch date (UTC)
2000-09-21 (25 years ago)
Launch vehicle
Unknown
Launch site
Air Force Western Test Range (AFWTR)
Object type
Payload
Rocket body
Debris
Shape & HBR
Unknown
Radar Cross Section
Small (<0.1 m²)

Expand to show TLE details & history
Last TLE update: 4 days ago

TLE from 4 days ago
0 NOAA 16 DEB
1 41426U 00055LF  25257.35524332  .00026853  00000-0  45097-2 0  9996
2 41426  98.8994  45.7515 0014064 206.2950 153.7540 14.69550095496673
Epoch: 2025-09-14T08:31Z
TLE epoch observation values (Epoch: 2025-09-14T08:31:33.022Z)
Latitude
-0.00011°
Longitude
-75.71151°
Altitude
674.366 km
Speed
7.515 km/s
True Right ascension
03h 03m 00s
True Declination
0° 00' 00"
Sunlit
Object was in full shadow at epoch
Visualization orbit readout
Latitude
Unknown
Longitude
Unknown
Altitude
Unknown
Speed
Unknown
Apparent Right ascension
Unknown
Apparent Declination
Unknown
Sunlit
N/A
Visualization observer readout
Local Sidereal Time
23:08:20
Azimuth
Unknown
Elevation
Unknown
Doppler factor
Unknown
Orbital elements
Apogee altitude
669.505 km
Perigee altitude
649.709 km
Semi-major axis
7,037.744 km
Eccentricity
0.00141
Inclination
98.8994°
RAAN
45.7515°
Arg. of periapsis
206.295°
True anomaly
153.82516°
Mean anomaly
153.754°
Eccentric anomaly
153.78959°
Mean motion
3.67615 °/min
Orbital period
97.93 mins
BSTAR
0.0045097
Loading maneuver chart data...
Computing Atmospheric mass density...
Loading historical data...
Loading historical data...
Loading historical data...
Loading historical data...
Loading historical data...
Loading historical data...
Loading historical data...

Documentation

Showing up to 5 results
|